Regional Weather Roundup
Issued by NWS San Angelo, TX

Home | Current Version | Previous Version | Text Only | Print | Product List | Glossary On
Versions: 1 2 3 4 5 6 7 8 9 10 11 12 13 14 15 16 17 18 19 20 21 22 23 24 25 26 27 28 29 30 31 32 33 34 35 36 37 38 39 40 41 42 43 44 45 46 47 48 49 50
630
ASUS44 KSJT 230910
RWRSJT
WEST CENTRAL TEXAS REGIONAL WEATHER ROUNDUP
NATIONAL WEATHER SERVICE SAN ANGELO TX
300 AM CST FRI FEB 23 2018

NOTE: "FAIR" INDICATES FEW OR NO CLOUDS BELOW 12,000 FEET WITH NO
SIGNIFICANT WEATHER AND/OR OBSTRUCTIONS TO VISIBILITY.

TXZ049-054-064>066-071>073-076>078-098-099-113-114-127-128-139-140-
154-155-168>170-231000
...LOCATIONS ACROSS WEST CENTRAL TEXAS...

CITY           SKY/WX    TMP DP  RH WIND       PRES   REMARKS
SAN ANGELO     CLOUDY    41  38  89 NE3       30.14F FOG
ABILENE        CLOUDY    34  34 100 CALM      30.16S
DYESS AFB      CLOUDY    34  34 100 NW3       30.17R
JUNCTION       NOT AVBL
SWEETWATER     CLOUDY    36  36 100 W6        30.16F WCI  31
BROWNWOOD      CLOUDY    39  37  93 SE6       30.18F WCI  35
COLEMAN        CLOUDY    40  38  91 S3        30.17F
SONORA         FOG       46  46 100 CALM      30.15F VSB 1
OZONA          FOG       43  43 100 CALM      30.14F VSB 1/2
BRADY          NOT AVBL
$$

TEXAS PANHANDLE/OKLAHOMA PANHANDLE

CITY           SKY/WX    TMP DP  RH WIND       PRES   REMARKS
AMARILLO       CLOUDY    32  27  81 SW6       30.09F WCI  26
BORGER         CLOUDY    34  29  82 SW6       30.10S WCI  29
CANADIAN       CLOUDY    28  28  98 S5        30.11F WCI  23
DALHART        CLEAR     27  15  61 NW6       30.09F WCI  20
DUMAS          CLOUDY    27  22  82 W7        30.08F WCI  19
GUYMON         NOT AVBL
HEREFORD       CLOUDY    33  29  85 SW7       30.11F WCI  27
PAMPA          CLOUDY    31  28  89 W8        30.10F WCI  23
PERRYTON       CLOUDY    31  28  88 W3        30.08F
$$

SOUTHERN PANHANDLE/SOUTH PLAINS/ROLLING PLAINS

CITY           SKY/WX    TMP DP  RH WIND       PRES   REMARKS
LUBBOCK        CLOUDY    33  31  92 W7        30.10F WCI  27
SNYDER         FOG       36  36 100 W3        30.14F VSB 1/4
CHILDRESS      CLOUDY    36  36 100 S6        30.15F WCI  31
SEMINOLE       CLOUDY    31  28  89 CALM      30.12F
$$

PERMIAN BASIN

CITY           SKY/WX    TMP DP  RH WIND       PRES   REMARKS
MIDLAND        FOG       40  39  97 E5        30.12F VSB 1/4 WCI  37
ODESSA         FOG       39  38  96 E3        30.12F VSB 1/4
WINK           CLOUDY    32  28  85 NE5       30.11F WCI  27
$$

FAR WEST/SOUTHWEST MOUNTAINS/TRANS PECOS

CITY           SKY/WX    TMP DP  RH WIND       PRES   REMARKS
ALPINE         CLOUDY    39  21  49 S7        30.14F WCI  34
DRYDEN           N/A     47  43  86 NE5       30.09F
EL PASO        PTCLDY    43  23  45 SE3       30.11F
FORT STOCKTON  CLOUDY    36  30  79 S5        30.10F WCI  32
GUADALUPE PASS PTCLDY    43  20  39 S8        30.12F WCI  38
MARFA          CLEAR     34  15  46 NW5       30.12F WCI  30
PECOS          SUNNY     33  25  73 NW3       30.12F
$$

DALLAS/FORT WORTH METROPLEX

CITY           SKY/WX    TMP DP  RH WIND       PRES   REMARKS
DFW AIRPORT    TSTM      40  38  93 N10       30.17F FOG     WCI  33
FTW MEACHAM    CLOUDY    39  36  89 NW3       30.22F
DAL-EXECUTIVE  LGT RAIN  40  39  97 NW6       30.22R WCI  36
GRAND PRAIRIE  CLOUDY    39  39 100 CALM      30.24S
ADDISON        TSTM      38  37  96 N5        30.22F WCI  35
MESQUITE       CLOUDY    40  40  98 CALM      30.21F
LANCASTER      CLOUDY    40  38  95 CALM      30.22F
$$

NORTH CENTRAL TEXAS

CITY           SKY/WX    TMP DP  RH WIND       PRES   REMARKS
SHRMAN/DENISON CLOUDY    36  35  96 CALM      30.24F
GAINESVILLE    CLOUDY    33  33  97 CALM      30.23F FOG
BRIDGEPORT     CLOUDY    34  34 100 CALM      30.24F
DENTON         CLOUDY    36  35  96 NW5       30.23R FOG     WCI  32
WAXAHACHIE     CLOUDY    40  40 100 NW5       30.23S FOG     WCI  36
GRANBURY       DRIZZLE   39  35  86 CALM      30.24F
$$

WESTERN NORTH TEXAS

CITY           SKY/WX    TMP DP  RH WIND       PRES   REMARKS
WICHITA FALLS  CLOUDY    33  32  96 N5        30.18F VSB 1/2 WCI  29
VERNON         CLOUDY    37  33  87 NW8       30.18F WCI  31
BRECKENRIDGE   CLOUDY    35  35 100 CALM      30.18F
COMANCHE       CLOUDY    39  39 100 CALM      30.19F
$$

CENTRAL AND SOUTH CENTRAL TEXAS

CITY           SKY/WX    TMP DP  RH WIND       PRES   REMARKS
AUSTIN/BERGSTM DRIZZLE   43  43 100 NW6       30.21F WCI  39
WACO           LGT RAIN  41  39  93 N3        30.21F
HILLSBORO      RAIN      41  40  99 NW6       30.22F WCI  37
TEMPLE         LGT RAIN  40  40 100 N3        30.21F
KILLEEN-GRAY   LGT RAIN  39  39  99 CALM      30.19F
FORT HOOD      NOT AVBL
GEORGETOWN     LGT RAIN  42  41  96 W3        30.24R
LAGO VISTA     RAIN      43  43 100 NE7       30.19F WCI  39
SAN MARCOS     CLOUDY    45  44  97 N7        30.21F FOG
NEW BRAUNFELS  CLOUDY    46  45  96 N5        30.18R FOG
RANDOLPH AFB   CLOUDY    46  46 100 NE3       30.18F FOG
SAN ANTONIO    LGT RAIN  50  50 100 NW5       30.19R FOG
STINSON        TSTM      50  48  93 SW3       30.18S FOG
PLEASANTON     NOT AVBL
LA GRANGE      CLOUDY    46  46 100 CALM      30.19R
GIDDINGS       CLOUDY    41  40  98 CALM      30.22R FOG
$$

EAST TEXAS

CITY           SKY/WX    TMP DP  RH WIND       PRES   REMARKS
PARIS          LGT RAIN  43  42  97 W3        30.25R
CLARKSVILLE    NOT AVBL
TYLER          TSTM      46  46 100 NW6       30.21F FOG
LONGVIEW       CLOUDY    50  50 100 CALM      30.21F
PALESTINE      CLOUDY    45  45 100 W3        30.26R
NACOGDOCHES    LGT RAIN  51  51 100 NW5       30.23S FOG
$$

TEXAS HILL COUNTRY AND EDWARDS PLATEAU

CITY           SKY/WX    TMP DP  RH WIND       PRES   REMARKS
LLANO          CLOUDY    43  41  93 CALM      30.22F
HORSESHOE BAY  CLOUDY    42  42 100 CALM      30.19F FOG
KERRVILLE      CLOUDY    46  44  91 CALM      30.15F
FREDERICKSBRG  CLOUDY    42  41  97 E6        30.16F FOG     WCI  38
ROCKSPRINGS    FOG       46  46 100 NW6       30.14F VSB 1/4
HONDO          CLOUDY    54  52  93 E13       30.12F FOG
UVALDE         DRIZZLE   51  51  99 NE10G20   30.10F
DEL RIO        CLOUDY    53  50  89 SE5       30.10F
$$

SOUTHEAST TEXAS

CITY           SKY/WX    TMP DP  RH WIND       PRES   REMARKS
COLLEGE STN    CLOUDY    45  45 100 NE7       30.20F FOG
CALDWELL       CLOUDY    43  43  99 NE3       30.21F FOG
CROCKETT       CLOUDY    48  46  93 CALM      30.25F FOG
BRENHAM        FOG       47  47 100 CALM      30.21F VSB 3/4
HUNTSVILLE     FOG       47  47 100 CALM      30.21F VSB 1
CONROE         FOG       53  53 100 NE3       30.21F VSB 1
HOUSTON BUSH   FOG       57  57 100 N6        30.21F VSB 1/8
HOUSTON HOBBY  CLOUDY    64  64 100 NW5       30.19F FOG
PERLAND        CLOUDY    71  71 100 S6        30.20F
WHARTON        FOG       49  49  98 N5        30.21F VSB 3/4
$$

THE UPPER TEXAS COAST

CITY           SKY/WX    TMP DP  RH WIND       PRES   REMARKS
ORANGE         CLOUDY    71  71 100 S10       30.23S
PORT ARTHUR    CLOUDY    70  68  93 S8        30.20F
GALVESTON      FOG       70  70 100 S6        30.20S VSB 1/2
ANGLETON       CLOUDY    72  70  93 S8        30.18F
BAY CITY       FOG       59  59 100 N5        30.18F VSB 1/2
$$

TEXAS COASTAL BEND, RIO GRANDE PLAINS DEEP SOUTH TEXAS

CITY           SKY/WX    TMP DP  RH WIND       PRES   REMARKS
VICTORIA       FOG       50  48  93 N5        30.18F VSB 1/2
BEEVILLE       CLOUDY    49  49 100 N3        30.16S FOG
ROCKPORT       FOG       55  55 100 NE5       30.16F VSB 3/4
PORT ARANSAS   NOT AVBL
PORT LAVACA    FOG       52  51  97 N7        30.18F VSB 3/4
CORPUS CHRISTI DRIZZLE   53  53 100 NE8       30.15F FOG
KINGSVILLE NAS FOG       54  53  97 NE6       30.13F VSB 3/4
COTULLA        CLOUDY    52  51  97 E8        30.13F
LAREDO         CLOUDY    54  52  93 NE8       30.14F FOG
BROWNSVILLE    CLOUDY    60  59  96 N5        30.16F FOG
PORT ISABEL    CLOUDY    58  56  93 NW6       30.15F FOG
HEBBRONVILLE   CLOUDY    54  54  98 CALM      30.15R FOG
MCALLEN        CLOUDY    60  58  92 NW3       30.16R
WESLACO        CLOUDY    56  55  96 E3        30.13F FOG
FALFURRIAS     CLOUDY    55  53  95 E10       30.10F
EDINBURG       CLOUDY    58  56  92 CALM      30.15S
$$




USA.gov is the U.S. government's official web portal to all federal, state and local government web resources and services.